STARLINK-32409, 61591

Orbit data source: Space-Track

STARLINK-32409, 61591 is a payload satellite owned by SpaceX/Seattle (US) in LEO that was launched on Fri, 18 Oct 2024 UTC via an FALCON 9 launch vehicle from the Air Force Eastern Test Range (AFETR). Payload-class satellites include a variety of spacecraft equipped with specific instruments for various scientific and technological missions. These include communications satellites like Starlink; space stations such as the ISS; scientific satellites like the Hubble; Earth observation satellites from companies like Planet Labs, Umbra, and HawkEye 360; GPS; miniature CubeSats for education and research; and military/defense satellites.

Loading next visibility...
Identifier
61591, 2024-187T
Orbit
LEO
Country
Flag of USUS
Related business
Manufacturer
SpaceX/Seattle
Mission
Operational Commercial Communications
Bus & Motor
STARLINK V2M, Unknown motor
Mass
730 kg wet, ~700 kg dry
Launch date (UTC)
2024-10-18 (2 years ago)
Launch vehicle
FALCON 9
Launch site
Air Force Eastern Test Range (AFETR)
Object type
Payload
Rocket body
Debris
Shape & HBR
Box + 2 Pan, 17.7 m
Radar Cross Section
33.884 m², Large (>1 m²)

Expand to show TLE details & history
Last TLE update: 1 day ago

TLE from 1 day ago
0 STARLINK-32409
1 61591U 24187T   26170.63587437  .00001767  00000-0  63392-4 0  9991
2 61591  53.1620 295.7635 0000920  75.7915 284.3190 15.34404365 94918
Epoch: 2026-06-19T15:15Z
TLE epoch observation values (Epoch: 2026-06-19T15:15:39.545Z)
Latitude
-0.00001°
Longitude
158.98671°
Altitude
463.436 km
Speed
7.636 km/s
True Right ascension
19h 43m 03s
True Declination
0° 00' 00"
Sunlit
Object was in full shadow at epoch
Visualization orbit readout
Latitude
Unknown
Longitude
Unknown
Altitude
Unknown
Speed
Unknown
Apparent Right ascension
Unknown
Apparent Declination
Unknown
Sunlit
N/A
Visualization observer readout
Local Sidereal Time
07:16:31
Azimuth
Unknown
Elevation
Unknown
Doppler factor
Unknown
Orbital elements
Apogee altitude
463.576 km
Perigee altitude
462.317 km
Semi-major axis
6,841.084 km
Eccentricity
0.00009
Inclination
53.162°
RAAN
295.7635°
Arg. of periapsis
75.7915°
True anomaly
284.30878°
Mean anomaly
284.319°
Eccentric anomaly
284.31389°
Mean motion
3.8358 °/min
Orbital period
93.85 mins
BSTAR
0.000063392
Loading maneuver chart data...
Computing Atmospheric mass density...
Loading historical data...
Loading historical data...
Loading historical data...
Loading historical data...
Loading historical data...
Loading historical data...
Loading historical data...

Documentation

Showing up to 5 results
|